This is the latest recevied weather packets stored in our database for station/object W8KHW. If no packets are shown the sender has not sent any weather packets the latest 10 day(s).
| Time | Temp. | Humidity | Pressure | Rain* | Wind** | Luminosity | Snow |
|---|---|---|---|---|---|---|---|
| 1777952982 | 19.44° C | 65% | 1006.7 hPa | 0 mm | - | - | - |
| 1777952481 | 19.44° C | 65% | 1006.5 hPa | 0 mm | - | - | - |
| 1777951981 | 19.44° C | 64% | 1006.8 hPa | 0 mm | - | - | - |
| 1777951481 | 19.44° C | 66% | 1006.7 hPa | 0 mm | - | - | - |
| 1777950981 | 18.89° C | 68% | 1006.7 hPa | 0 mm | - | - | - |
| 1777950481 | 18.33° C | 68% | 1006.5 hPa | 0 mm | - | - | - |
| 1777949980 | 18.33° C | 69% | 1006.7 hPa | 0 mm | - | - | - |
| 1777949480 | 18.33° C | 70% | 1006.5 hPa | 0 mm | - | - | - |
| 1777948980 | 18.33° C | 70% | 1006.4 hPa | 0 mm | - | - | - |
| 1777948480 | 18.89° C | 69% | 1006.4 hPa | 0 mm | - | - | - |
| 1777947980 | 18.89° C | 68% | 1006.6 hPa | 0 mm | - | - | - |
| 1777947479 | 18.89° C | 68% | 1006.6 hPa | 0 mm | - | - | - |
| 1777946979 | 19.44° C | 66% | 1006.5 hPa | 0 mm | - | - | - |
| 1777946479 | 19.44° C | 66% | 1006.4 hPa | 0 mm | - | - | - |
| 1777945979 | 19.44° C | 67% | 1006.5 hPa | 0 mm | - | - | - |
| 1777945479 | 19.44° C | 66% | 1006.5 hPa | 0 mm | - | - | - |
| 1777944979 | 19.44° C | 67% | 1006.3 hPa | 0 mm | - | - | - |
| 1777944479 | 19.44° C | 66% | 1006.1 hPa | 0 mm | - | - | - |
| 1777943978 | 19.44° C | 66% | 1005.8 hPa | 0 mm | - | - | - |
| 1777943478 | 19.44° C | 64% | 1005.9 hPa | 0 mm | - | - | - |
| 1777942978 | 19.44° C | 64% | 1005.9 hPa | 0 mm | - | - | - |
| 1777942478 | 19.44° C | 64% | 1006.1 hPa | 0 mm | - | - | - |
| 1777941978 | 20° C | 64% | 1006.1 hPa | 0 mm | - | - | - |
| 1777941478 | 20° C | 62% | 1005.9 hPa | 0 mm | - | - | - |
| 1777940977 | 20° C | 62% | 1005.9 hPa | 0 mm | - | - | - |
* Rain latest hour (hover to see other rain measurements)
** Current wind speed in m/s (hover to see current wind gust speed)